[[{"header":{"parameterUnit":"m.s-1","parameterCategory":1,"la1":30.2991,"la2":30.254,"lo1":-89.0895,"lo2":-89.0444,"dy":0.0017,"dx":0.0017,"nx":28,"ny":28,"refTime":"2025-04-23T21:00:00:Z","depth":0,"parameterNumber":2,"parameterNumberName":"U-component_of_WINDS"},"data":[0,0,0,0,0,0,0,0,0,0,0,0,0,0,0,0,0,0,0,0,0,0,0,0,0,0,0,0,0,0,0,0,0,0,0,0,0,0,0,0,0,0,0,0,0,0,0,0,0,0,0,0,0,0,0,0,0,0,-1.1518,-1.1518,0,-1.1557,-1.1557,-1.1558,-1.1561,-1.1561,-1.156,-1.156,-1.1601,-1.1603,-1.1604,0,0,0,0,0,0,0,0,0,0,0,0,0,-1.1449,-1.145,-1.1518,-1.1518,-1.1519,-1.1557,-1.1557,-1.1558,-1.1561,-1.1561,-1.156,-1.156,-1.1601,-1.1602,-1.1604,0,0,0,0,0,0,0,0,0,0,0,0,0,-1.1482,-1.145,-1.1518,-1.1525,-1.1526,-1.1556,-1.1557,-1.1558,-1.1561,-1.1561,-1.156,-1.1559,-1.16,-1.1602,-1.1604,-1.1631,0,0,-1.1611,-1.1612,0,0,0,0,0,0,0,0,-1.148,-1.1485,-1.1523,-1.1524,-1.1526,-1.1553,-1.1548,-1.1582,-1.1561,-1.1548,-1.156,-1.1559,-1.1586,-1.1589,-1.1598,-1.1633,-1.1634,-1.1611,-1.1613,-1.1614,-1.1614,0,0,0,0,0,0,0,-1.1478,-1.1483,-1.1533,-1.1524,-1.1525,-1.1527,-1.1531,-1.1554,-1.157,-1.1549,-1.1549,-1.1554,-1.1586,-1.1596,-1.1599,-1.1635,-1.1611,-1.1613,-1.1615,-1.1616,-1.1695,-1.1696,0,0,0,0,0,0,-1.1474,-1.1481,-1.1532,-1.1534,-1.1501,-1.1529,-1.1533,-1.1545,-1.157,-1.1573,-1.1554,-1.1554,-1.1592,-1.1596,-1.16,-1.1633,-1.1614,-1.1616,-1.1617,-1.1694,-1.1695,-1.1696,0,0,0,0,0,0,-1.1473,-1.1478,-1.153,-1.1508,-1.1515,-1.1531,-1.1544,-1.1546,-1.1556,-1.1574,-1.1577,-1.1561,-1.1592,-1.1597,-1.1623,-1.1635,-1.1617,-1.1619,-1.1693,-1.1694,-1.1695,-1.1699,0,0,0,0,0,0,-1.1471,-1.1478,-1.1487,-1.1508,-1.1516,-1.1552,-1.1544,-1.1547,-1.1559,-1.1559,-1.1581,-1.1584,-1.1592,-1.162,-1.1626,-1.1638,-1.1621,-1.1692,-1.1694,-1.1695,-1.1698,-1.17,-1.1702,0,0,0,0,0,-1.1468,-1.1487,-1.1488,-1.1494,-1.1528,-1.1552,-1.1557,-1.1566,-1.156,-1.157,-1.1582,-1.1583,-1.1633,-1.1623,-1.1629,-1.1642,-1.1692,-1.1693,-1.1695,-1.1697,-1.17,-1.1702,0,0,0,0,0,0,-1.1467,-1.149,-1.1491,-1.1517,-1.1533,-1.1553,-1.1566,-1.1568,-1.1586,-1.1585,-1.1596,-1.16,-1.1626,-1.1637,-1.1625,-1.1669,-1.1662,-1.1665,-1.1661,-1.1664,-1.1666,-1.1663,-1.1622,0,0,0,0,0,-1.147,-1.1488,-1.1507,-1.1528,-1.1536,-1.155,-1.1561,-1.1566,-1.1583,-1.159,-1.1603,-1.162,-1.164,-1.1653,-1.1672,-1.17,-1.1705,-1.1712,-1.1714,-1.1716,-1.1718,-1.1735,-1.1739,-1.1702,-1.1701,-1.1701,0,0,-1.1476,-1.1491,-1.1501,-1.1528,-1.1541,-1.156,-1.1555,-1.1575,-1.1589,-1.1593,-1.1618,-1.1629,-1.1649,-1.1677,-1.1689,-1.1686,-1.173,-1.1718,-1.1719,-1.1721,-1.1737,-1.1741,-1.1744,-1.1703,-1.1702,-1.1702,0,0,-1.1497,-1.1509,-1.1529,-1.1542,-1.1562,-1.1571,-1.1576,-1.1596,-1.1603,-1.1629,-1.1633,-1.165,-1.1683,-1.1698,-1.1709,-1.1737,-1.1739,-1.1743,-1.1754,-1.177,-1.1773,-1.1776,-1.1786,-1.179,-1.1746,-1.1746,-1.1746,0,-1.1502,-1.153,-1.1539,-1.1559,-1.1571,-1.1575,-1.1596,-1.1608,-1.1633,-1.1642,-1.1638,-1.1681,-1.1694,-1.1726,-1.1732,-1.1742,-1.1748,-1.174,-1.1772,-1.1775,-1.1777,-1.1788,-1.1791,-1.1746,-1.1746,-1.1746,-1.1746,0,-1.1536,-1.1555,-1.1568,-1.1592,-1.1606,-1.1626,-1.1639,-1.1652,-1.1657,-1.1667,-1.1694,-1.1711,-1.1733,-1.1741,-1.1746,-1.1774,-1.1772,-1.177,-1.1762,-1.1781,-1.1791,-1.1795,-1.1747,-1.1747,-1.1746,-1.1746,0,0,-1.1556,-1.1585,-1.159,-1.1601,-1.1624,-1.164,-1.1661,-1.1683,-1.1694,-1.1712,-1.173,-1.1759,-1.1758,-1.1771,-1.1778,-1.1792,-1.1814,-1.1789,-1.1789,-1.1793,-1.1847,-1.1848,-1.1852,-1.1816,-1.1816,-1.1817,-1.1845,0,-1.1579,-1.1616,-1.1625,-1.1657,-1.1675,-1.168,-1.1699,-1.1715,-1.1726,-1.1744,-1.1756,-1.1776,-1.1772,-1.1781,-1.1795,-1.1808,-1.1825,-1.1806,-1.1834,-1.1834,-1.1828,-1.1857,-1.1859,-1.1885,-1.1849,-1.185,-1.185,0,-1.1611,-1.1629,-1.1662,-1.1684,-1.1692,-1.1708,-1.173,-1.1747,-1.1766,-1.1773,-1.1789,-1.1794,-1.1817,-1.1809,-1.1842,-1.1829,-1.1841,-1.1849,-1.185,-1.1853,-1.1843,-1.1861,-1.1893,-1.1897,-1.1856,-1.1856,-1.1855,0,-1.1623,-1.1656,-1.168,-1.169,-1.1715,-1.1727,-1.1738,-1.1757,-1.177,-1.179,-1.1798,-1.1821,-1.1833,-1.185,-1.1862,-1.1855,-1.1894,-1.1886,-1.1901,-1.1901,-1.1909,-1.1908,-1.1943,-1.1916,-1.1916,-1.1916,-1.1916,0,-1.1648,-1.1668,-1.1686,-1.1701,-1.1725,-1.1736,-1.1759,-1.177,-1.1787,-1.1806,-1.1812,-1.1829,-1.1843,-1.1863,-1.1873,-1.1899,-1.1904,-1.1911,-1.1913,-1.191,-1.1909,-1.1918,-1.1917,-1.1917,-1.1917,-1.1917,-1.1917,0,-1.1664,-1.1677,-1.1704,-1.1727,-1.1733,-1.1749,-1.1769,-1.1784,-1.1795,-1.1818,-1.1824,-1.1842,-1.1865,-1.1879,-1.1908,-1.1915,-1.1944,-1.1946,-1.1937,-1.1938,-1.1952,-1.1951,-1.1994,-1.2,-1.1969,-1.197,-1.197,0,-1.1679,-1.1695,-1.1719,-1.1732,-1.1743,-1.1763,-1.1777,-1.1789,-1.1803,-1.1828,-1.184,-1.1864,-1.1884,-1.1921,-1.1937,-1.196,-1.1962,-1.1976,-1.1966,-1.1963,-1.1963,-1.1962,-1.1964,-1.1977,-1.1978,-1.1978,-1.1978,0,-1.1705,-1.1711,-1.173,-1.1752,-1.1768,-1.1786,-1.1804,-1.1814,-1.1829,-1.1845,-1.1869,-1.1884,-1.1915,-1.1938,-1.1963,-1.1976,-1.198,-1.1981,-1.1986,-1.1983,-1.1978,-1.1981,-1.1942,-1.198,-1.198,-1.198,-1.198,-1.1979,-1.1722,-1.1736,-1.1756,-1.1777,-1.1792,-1.1809,-1.1825,-1.1838,-1.1858,-1.1884,-1.189,-1.1915,-1.1936,-1.1969,-1.1983,-1.2004,-1.2001,-1.2008,-1.201,-1.2011,-1.2012,-1.1975,-1.2008,-1.2008,-1.2008,-1.2008,-1.2008,0,-1.1748,-1.1761,-1.1781,-1.1805,-1.1823,-1.1825,-1.1845,-1.186,-1.1882,-1.1901,-1.192,-1.1948,-1.1972,-1.199,-1.2014,-1.2028,-1.203,-1.2034,-1.2033,-1.2036,-1.2012,-1.2006,-1.2031,-1.2031,-1.2031,-1.2031,-1.2031,-1.2031,-1.1763,-1.1788,-1.1797,-1.183,-1.1844,-1.1868,-1.188,-1.1896,-1.1911,-1.1942,-1.1961,-1.1973,-1.1992,-1.2018,-1.204,-1.2045,-1.2054,-1.2057,-1.2063,-1.204,-1.2037,-1.2035,-1.2029,-1.2059,-1.2059,-1.2085,-1.2085,-1.2085]},{"header":{"parameterUnit":"m.s-1","parameterCategory":1,"la1":30.2991,"la2":30.254,"lo1":-89.0895,"lo2":-89.0444,"dy":0.0017,"dx":0.0017,"nx":28,"ny":28,"refTime":"2025-04-23T21:00:00:Z","depth":0,"parameterNumber":3,"parameterNumberName":"V-component_of_WINDS"},"data":[0,0,0,0,0,0,0,0,0,0,0,0,0,0,0,0,0,0,0,0,0,0,0,0,0,0,0,0,0,0,0,0,0,0,0,0,0,0,0,0,0,0,0,0,0,0,0,0,0,0,0,0,0,0,0,0,0,0,0.4277,0.4277,0,0.4279,0.4279,0.4279,0.4277,0.4277,0.4277,0.4277,0.4278,0.4278,0.4278,0,0,0,0,0,0,0,0,0,0,0,0,0,0.4272,0.4272,0.4277,0.4277,0.4277,0.4279,0.4279,0.4279,0.4277,0.4277,0.4277,0.4276,0.4278,0.4278,0.4278,0,0,0,0,0,0,0,0,0,0,0,0,0,0.4274,0.4272,0.4277,0.4276,0.4276,0.4279,0.4279,0.4279,0.4277,0.4277,0.4277,0.4276,0.4278,0.4278,0.4278,0.4281,0,0,0.4279,0.4279,0,0,0,0,0,0,0,0,0.4274,0.4274,0.4276,0.4276,0.4276,0.4277,0.4278,0.428,0.4277,0.4277,0.4277,0.4276,0.4278,0.4278,0.4279,0.4282,0.4282,0.4279,0.4279,0.4279,0.4279,0,0,0,0,0,0,0,0.4274,0.4274,0.4278,0.4277,0.4276,0.4276,0.4276,0.4278,0.4278,0.4277,0.4276,0.4277,0.4278,0.4278,0.4279,0.4282,0.4279,0.4279,0.4279,0.4279,0.4287,0.4287,0,0,0,0,0,0,0.4274,0.4274,0.4278,0.4278,0.4275,0.4276,0.4276,0.4277,0.4278,0.4278,0.4277,0.4277,0.4278,0.4278,0.4279,0.4282,0.4279,0.4279,0.4279,0.4287,0.4287,0.4287,0,0,0,0,0,0,0.4274,0.4274,0.4278,0.4276,0.4276,0.4276,0.4277,0.4277,0.4278,0.4278,0.4278,0.4277,0.4278,0.4278,0.4281,0.4282,0.4279,0.4279,0.4287,0.4287,0.4287,0.4289,0,0,0,0,0,0,0.4274,0.4274,0.4275,0.4276,0.4276,0.428,0.4277,0.4277,0.4278,0.4278,0.4279,0.4279,0.4278,0.428,0.4281,0.4282,0.4279,0.4286,0.4287,0.4287,0.4289,0.4289,0.429,0,0,0,0,0,0.4273,0.4276,0.4276,0.4276,0.4278,0.428,0.428,0.428,0.4278,0.428,0.428,0.4279,0.4282,0.4281,0.4281,0.4283,0.4286,0.4287,0.4287,0.4289,0.4289,0.429,0,0,0,0,0,0,0.4276,0.4276,0.4276,0.4279,0.4279,0.428,0.4281,0.428,0.4281,0.4281,0.428,0.428,0.4283,0.4283,0.4282,0.4286,0.4284,0.4284,0.4285,0.4286,0.4286,0.4286,0.428,0,0,0,0,0,0.4277,0.4278,0.4278,0.4281,0.4281,0.4281,0.4282,0.4281,0.4282,0.4282,0.4283,0.4283,0.4284,0.4285,0.4286,0.4289,0.4289,0.429,0.4291,0.4291,0.4291,0.4292,0.4293,0.4288,0.4288,0.4288,0,0,0.4279,0.4279,0.428,0.4282,0.4282,0.4283,0.4281,0.4283,0.4284,0.4283,0.4285,0.4285,0.4285,0.4288,0.4289,0.4288,0.4293,0.4291,0.4292,0.4292,0.4293,0.4293,0.4294,0.4288,0.4288,0.4288,0,0,0.4283,0.4283,0.4285,0.4286,0.4286,0.4286,0.4287,0.4287,0.4287,0.4289,0.4288,0.4289,0.4291,0.4291,0.4292,0.4296,0.4295,0.4296,0.4298,0.4299,0.43,0.43,0.4301,0.4301,0.4296,0.4296,0.4296,0,0.4285,0.4287,0.4286,0.4288,0.4289,0.4287,0.4289,0.429,0.4291,0.4291,0.429,0.4292,0.4293,0.4295,0.4296,0.4297,0.4297,0.4296,0.43,0.43,0.43,0.4301,0.4302,0.4297,0.4297,0.4297,0.4297,0,0.4289,0.4291,0.4292,0.4293,0.4294,0.4296,0.4295,0.4296,0.4296,0.4295,0.4297,0.4298,0.4299,0.4299,0.4299,0.4301,0.4301,0.43,0.4298,0.4301,0.4302,0.4302,0.4297,0.4297,0.4297,0.4297,0,0,0.4295,0.4295,0.4296,0.4296,0.4297,0.4298,0.4299,0.43,0.4301,0.4301,0.4303,0.4304,0.4303,0.4304,0.4303,0.4304,0.4307,0.4303,0.4303,0.4304,0.4309,0.431,0.431,0.4306,0.4306,0.4306,0.4309,0,0.4299,0.4301,0.4301,0.4303,0.4305,0.4303,0.4305,0.4305,0.4305,0.4306,0.4305,0.4307,0.4305,0.4306,0.4307,0.4306,0.4308,0.4306,0.4307,0.4307,0.4307,0.4311,0.4312,0.4314,0.431,0.431,0.431,0,0.4303,0.4304,0.4307,0.4307,0.4307,0.4308,0.4309,0.431,0.431,0.431,0.431,0.431,0.4311,0.431,0.4311,0.431,0.431,0.431,0.431,0.431,0.4308,0.4311,0.4315,0.4315,0.431,0.431,0.431,0,0.4307,0.4308,0.431,0.431,0.431,0.4311,0.4311,0.4312,0.4312,0.4313,0.4313,0.4314,0.4314,0.4314,0.4314,0.4313,0.4316,0.4314,0.4315,0.4315,0.4316,0.4316,0.432,0.4316,0.4316,0.4316,0.4316,0,0.4311,0.4312,0.4311,0.4313,0.4314,0.4313,0.4315,0.4315,0.4315,0.4316,0.4315,0.4316,0.4315,0.4316,0.4315,0.4317,0.4317,0.4317,0.4317,0.4317,0.4317,0.4317,0.4316,0.4316,0.4316,0.4316,0.4316,0,0.4315,0.4314,0.4316,0.4316,0.4316,0.4317,0.4317,0.4318,0.4317,0.4319,0.4319,0.4318,0.4319,0.4319,0.4319,0.4319,0.4321,0.432,0.4321,0.432,0.4322,0.4321,0.4326,0.4326,0.4323,0.4323,0.4323,0,0.4317,0.4318,0.4318,0.4319,0.4319,0.432,0.432,0.4319,0.432,0.432,0.4321,0.4322,0.4322,0.4323,0.4323,0.4324,0.4323,0.4325,0.4323,0.4323,0.4323,0.4323,0.4323,0.4325,0.4325,0.4325,0.4325,0,0.4321,0.4321,0.4322,0.4322,0.4323,0.4323,0.4323,0.4324,0.4323,0.4324,0.4324,0.4325,0.4325,0.4326,0.4326,0.4326,0.4325,0.4325,0.4326,0.4326,0.4326,0.4325,0.4321,0.4325,0.4325,0.4325,0.4325,0.4325,0.4324,0.4325,0.4325,0.4326,0.4326,0.4326,0.4327,0.4327,0.4327,0.4328,0.4327,0.4328,0.4328,0.4329,0.4329,0.4329,0.4329,0.4329,0.4329,0.4329,0.4329,0.4326,0.4329,0.4329,0.4329,0.4329,0.4329,0,0.4328,0.4328,0.4329,0.4329,0.433,0.4329,0.4329,0.4329,0.433,0.433,0.4331,0.4331,0.4332,0.4332,0.4332,0.4332,0.4332,0.4333,0.4332,0.4332,0.433,0.4329,0.4333,0.4333,0.4333,0.4333,0.4333,0.4333,0.433,0.4331,0.4331,0.4332,0.4332,0.4333,0.4333,0.4333,0.4333,0.4334,0.4335,0.4334,0.4334,0.4335,0.4335,0.4335,0.4335,0.4336,0.4335,0.4333,0.4333,0.4332,0.4332,0.4336,0.4336,0.4338,0.4338,0.4338]}]]